When you browse on this site, cookies collect data to enhance your experience and personalize the content and advertising you see.
Visit our Privacy Policy to learn more. By continuing to use the site, you agree to this use of cookies and data.
  • In Lithuania
  • List of Countries
  • For 7 days
  • Water Temperature
  • Weather Map
  • Weather Widgets
  • user-avatar
    Login

    Hourly Weather Deviche

    Today, 24 August, Saturday

    Time Temperature Precipitation Wind Pressure Humidity
    00:00 +13°C° 0 mm 2 mps 750 mmHg 92%
    01:00 +12°C° 0 mm 3 mps 750 mmHg 92%
    02:00 +12°C° 0 mm 3 mps 749 mmHg 92%
    03:00 +12°C° 0 mm 3 mps 749 mmHg 91%
    04:00 +13°C° 0 mm 3 mps 749 mmHg 90%
    05:00 +13°C° 0 mm 4 mps 748 mmHg 90%
    06:00 +14°C° 0 mm 4 mps 748 mmHg 84%
    07:00 +15°C° 0 mm 4 mps 748 mmHg 78%
    08:00 +17°C° 0 mm 5 mps 748 mmHg 71%
    09:00 +17°C° 0 mm 5 mps 748 mmHg 68%
    10:00 +19°C° 0 mm 5 mps 748 mmHg 66%
    11:00 +20°C° 0 mm 5 mps 748 mmHg 63%
    12:00 +20°C° 0 mm 5 mps 748 mmHg 66%
    13:00 +20°C° 0 mm 4 mps 747 mmHg 68%
    14:00 +20°C° 0 mm 4 mps 747 mmHg 70%
    15:00 +19°C° 0.2 mm 4 mps 747 mmHg 74%
    16:00 +19°C° 0.2 mm 3 mps 747 mmHg 78%
    17:00 +18°C° 0.2 mm 3 mps 748 mmHg 82%
    18:00 +17°C° 0 mm 3 mps 748 mmHg 86%
    19:00 +16°C° 0 mm 2 mps 748 mmHg 90%
    20:00 +14°C° 0 mm 2 mps 748 mmHg 94%
    21:00 +14°C° 0 mm 2 mps 748 mmHg 94%
    22:00 +13°C° 0 mm 2 mps 749 mmHg 94%
    23:00 +13°C° 0 mm 2 mps 749 mmHg 94%

    Tomorrow, 25 August, Sunday

    Time Temperature Precipitation Wind Pressure Humidity
    00:00 +12°C° 0 mm 2 mps 749 mmHg 95%
    01:00 +11°C° 0 mm 1 mps 750 mmHg 95%
    02:00 +11°C° 0 mm 1 mps 750 mmHg 96%
    03:00 +10°C° 0 mm 1 mps 750 mmHg 96%
    04:00 +10°C° 0 mm 1 mps 750 mmHg 97%
    05:00 +10°C° 0 mm 1 mps 750 mmHg 97%
    06:00 +11°C° 0 mm 1 mps 751 mmHg 92%
    07:00 +13°C° 0 mm 1 mps 751 mmHg 87%
    08:00 +15°C° 0 mm 1 mps 751 mmHg 82%
    09:00 +16°C° 0 mm 1 mps 751 mmHg 74%
    10:00 +19°C° 0 mm 1 mps 752 mmHg 66%
    11:00 +21°C° 0 mm 1 mps 752 mmHg 58%
    12:00 +21°C° 0 mm 1 mps 752 mmHg 55%
    13:00 +22°C° 0 mm 1 mps 752 mmHg 52%
    14:00 +23°C° 0 mm 1 mps 752 mmHg 50%
    15:00 +22°C° 0 mm 1 mps 752 mmHg 54%
    16:00 +22°C° 0 mm 1 mps 752 mmHg 58%
    17:00 +21°C° 0 mm 1 mps 752 mmHg 63%
    18:00 +19°C° 0 mm 1 mps 752 mmHg 70%
    19:00 +16°C° 0 mm 1 mps 752 mmHg 76%
    20:00 +14°C° 0 mm 1 mps 752 mmHg 83%
    21:00 +12°C° 0 mm 0 mps 752 mmHg 85%
    22:00 +12°C° 0 mm 0 mps 752 mmHg 86%
    23:00 +11°C° 0 mm 0 mps 752 mmHg 87%

    Day after tomorrow, 26 August, Monday

    Time Temperature Precipitation Wind Pressure Humidity
    00:00 +11°C° 0 mm 0 mps 752 mmHg 89%
    01:00 +11°C° 0 mm 0 mps 752 mmHg 90%
    02:00 +10°C° 0 mm 0 mps 752 mmHg 91%
    03:00 +11°C° 0 mm 1 mps 752 mmHg 92%
    04:00 +11°C° 0 mm 1 mps 752 mmHg 93%
    05:00 +11°C° 0 mm 1 mps 751 mmHg 93%
    06:00 +13°C° 0 mm 1 mps 751 mmHg 86%
    07:00 +15°C° 0 mm 1 mps 751 mmHg 79%
    08:00 +18°C° 0 mm 1 mps 751 mmHg 72%
    09:00 +18°C° 0 mm 2 mps 751 mmHg 66%
    10:00 +20°C° 0 mm 2 mps 751 mmHg 61%
    11:00 +21°C° 0 mm 2 mps 751 mmHg 55%
    12:00 +23°C° 0 mm 2 mps 750 mmHg 54%
    13:00 +22°C° 0 mm 3 mps 750 mmHg 52%
    14:00 +24°C° 0 mm 3 mps 750 mmHg 51%
    15:00 +22°C° 0 mm 3 mps 749 mmHg 55%
    16:00 +23°C° 0 mm 2 mps 749 mmHg 60%
    17:00 +21°C° 0 mm 2 mps 748 mmHg 65%
    18:00 +19°C° 0 mm 2 mps 748 mmHg 72%
    19:00 +17°C° 0 mm 2 mps 748 mmHg 79%
    20:00 +16°C° 0 mm 2 mps 747 mmHg 86%
    21:00 +16°C° 0 mm 2 mps 747 mmHg 88%
    22:00 +15°C° 0 mm 2 mps 747 mmHg 89%
    23:00 +15°C° 0 mm 2 mps 747 mmHg 90%

    27 August, Tuesday

    Time Temperature Precipitation Wind Pressure Humidity
    00:00 +15°C° 0.1 mm 2 mps 747 mmHg 92%
    01:00 +15°C° 0.1 mm 2 mps 746 mmHg 95%
    02:00 +15°C° 0.1 mm 2 mps 746 mmHg 97%
    03:00 +15°C° 0 mm 2 mps 746 mmHg 97%
    04:00 +14°C° 0 mm 2 mps 746 mmHg 98%
    05:00 +14°C° 0 mm 2 mps 746 mmHg 98%
    06:00 +15°C° 0 mm 2 mps 746 mmHg 97%
    07:00 +14°C° 0 mm 3 mps 746 mmHg 95%
    08:00 +16°C° 0 mm 3 mps 746 mmHg 93%
    09:00 +17°C° 0 mm 3 mps 746 mmHg 86%
    10:00 +18°C° 0 mm 3 mps 747 mmHg 80%
    11:00 +18°C° 0 mm 3 mps 747 mmHg 73%
    12:00 +19°C° 0 mm 4 mps 747 mmHg 67%
    13:00 +20°C° 0 mm 4 mps 747 mmHg 62%
    14:00 +21°C° 0 mm 4 mps 747 mmHg 56%
    15:00 +20°C° 0 mm 4 mps 747 mmHg 59%
    16:00 +19°C° 0 mm 4 mps 747 mmHg 62%
    17:00 +19°C° 0 mm 3 mps 747 mmHg 66%
    18:00 +17°C° 0 mm 3 mps 747 mmHg 72%
    19:00 +14°C° 0 mm 3 mps 748 mmHg 78%
    20:00 +14°C° 0 mm 2 mps 748 mmHg 84%
    21:00 +13°C° 0 mm 2 mps 748 mmHg 86%
    22:00 +12°C° 0 mm 2 mps 749 mmHg 88%
    23:00 +10°C° 0 mm 2 mps 749 mmHg 90%

    28 August, Wednesday

    Time Temperature Precipitation Wind Pressure Humidity
    00:00 +9°C° 0 mm 2 mps 749 mmHg 88%
    01:00 +8°C° 0 mm 2 mps 750 mmHg 85%
    02:00 +7°C° 0 mm 2 mps 750 mmHg 83%
    03:00 +6°C° 0 mm 2 mps 750 mmHg 83%
    04:00 +6°C° 0 mm 2 mps 750 mmHg 82%
    05:00 +5°C° 0 mm 2 mps 751 mmHg 81%
    06:00 +6°C° 0 mm 2 mps 751 mmHg 74%
    07:00 +8°C° 0 mm 2 mps 751 mmHg 67%
    08:00 +9°C° 0 mm 3 mps 751 mmHg 60%
    09:00 +10°C° 0 mm 3 mps 751 mmHg 55%
    10:00 +12°C° 0 mm 3 mps 751 mmHg 50%
    11:00 +13°C° 0 mm 3 mps 752 mmHg 44%
    12:00 +14°C° 0 mm 3 mps 751 mmHg 43%
    13:00 +16°C° 0 mm 3 mps 751 mmHg 42%
    14:00 +16°C° 0 mm 3 mps 751 mmHg 40%
    15:00 +16°C° 0 mm 3 mps 751 mmHg 44%
    16:00 +15°C° 0 mm 2 mps 751 mmHg 48%
    17:00 +15°C° 0 mm 2 mps 751 mmHg 52%
    18:00 +13°C° 0 mm 2 mps 751 mmHg 59%
    19:00 +10°C° 0 mm 2 mps 751 mmHg 66%
    20:00 +9°C° 0 mm 1 mps 751 mmHg 73%
    21:00 +8°C° 0 mm 1 mps 751 mmHg 75%
    22:00 +8°C° 0 mm 1 mps 751 mmHg 77%
    23:00 +7°C° 0 mm 1 mps 752 mmHg 80%

    29 August, Thursday

    Time Temperature Precipitation Wind Pressure Humidity
    00:00 +7°C° 0 mm 1 mps 752 mmHg 81%
    01:00 +6°C° 0 mm 1 mps 752 mmHg 82%
    02:00 +6°C° 0 mm 1 mps 752 mmHg 83%
    03:00 +6°C° 0 mm 1 mps 752 mmHg 82%
    04:00 +6°C° 0 mm 1 mps 752 mmHg 82%
    05:00 +6°C° 0 mm 1 mps 752 mmHg 82%
    06:00 +8°C° 0 mm 1 mps 752 mmHg 74%
    07:00 +10°C° 0 mm 1 mps 752 mmHg 66%
    08:00 +12°C° 0 mm 1 mps 752 mmHg 58%
    09:00 +13°C° 0 mm 1 mps 752 mmHg 58%
    10:00 +13°C° 0 mm 1 mps 752 mmHg 58%
    11:00 +14°C° 0 mm 2 mps 752 mmHg 58%
    12:00 +14°C° 0 mm 2 mps 752 mmHg 60%
    13:00 +14°C° 0 mm 1 mps 751 mmHg 62%
    14:00 +14°C° 0 mm 1 mps 751 mmHg 65%
    15:00 +14°C° 0 mm 1 mps 751 mmHg 65%
    16:00 +15°C° 0 mm 1 mps 751 mmHg 65%
    17:00 +15°C° 0 mm 1 mps 751 mmHg 65%
    18:00 +13°C° 0 mm 1 mps 751 mmHg 73%
    19:00 +11°C° 0 mm 1 mps 751 mmHg 81%
    20:00 +9°C° 0 mm 0 mps 751 mmHg 89%
    21:00 +8°C° 0 mm 0 mps 751 mmHg 90%
    22:00 +8°C° 0 mm 0 mps 751 mmHg 91%
    23:00 +8°C° 0 mm 0 mps 751 mmHg 92%
    Show more